ha-er-bin , China , ASIA

  • Sunday
    January 21

    Sunny  Sunny

    -2 °F  -24 °F

    West  West

    3~4L    

  • Monday
    January 22

    Sunny  Sunny

    -6 °F  -27 °F

    West  West

    3~4L    

  • Tuesday
    January 23

    Cloudy  Cloudy

    -8 °F  -29 °F

    West  West

    3~4L    

  • Wednesday
    January 24

    Cloudy  Sunny

    -9 °F  -31 °F

    Northwest  Northwest

    3~4L    

  • Thursday
    January 25

    Sunny  Sunny

    -11 °F  -27 °F

    Northwest  Northwest

    3~4L    

  • Friday
    January 26

    Sunny  Sunny

    -4 °F  -24 °F

    West  West

    3~4L    

  • Saturday
    January 27

    Sunny  Sunny

    -2 °F  -18 °F

    Southwest  Southwest

    3~4L    

Date   Weather Temperature Humidity Total_rain Visibility Wind
11:00 Sunny -7°F 72.4% 0mm 12km Northwest  2.6m/s
14:00 Sunny -3°F 70.4% 0mm 12km Northwest  2.5m/s
17:00 Sunny -8°F 80.5% 0mm 12km Southwest  1.5m/s
20:00 Sunny -11°F 86.7% 0mm 12km Southwest  1.5m/s
23:00 Sunny -14°F 89.3% 0mm 12km Southwest  1.4m/s
02:00 Sunny -21°F 89.7% 0mm 12km Southwest  1.1m/s
05:00 Sunny -23°F 89.5% 0mm 12km Southwest  1.5m/s
08:00 Sunny -23°F 64.7% 0mm 8km Northwest  1.5m/s
11:00 Sunny -11°F 61% 0mm 8km Northwest  2.4m/s
14:00 Sunny -6°F 70.6% 0mm 12km Northwest  2.8m/s
17:00 Sunny -11°F 76.8% 0mm 12km Northwest  1.3m/s
20:00 Sunny -14°F 79.8% 0mm 8km Southwest  1.5m/s
23:00 Sunny -16°F 82.6% 0mm 12km Southwest  1.1m/s
02:00 Sunny -23°F 83.1% 0mm 12km Southwest  1.1m/s
05:00 Sunny -27°F 83.1% 0mm 12km Southwest  1.3m/s
08:00 Sunny -26°F 64% 0mm 8km Southwest  1.6m/s
11:00 Cloudy -10°F 66.4% 0mm 8km Southwest  2.5m/s
14:00 Cloudy -8°F 72.8% 0mm 12km Northwest  2.7m/s
17:00 Cloudy -12°F 80.7% 0mm 8km Northwest  1.7m/s
20:00 Cloudy -18°F 83.7% 0mm 12km Northwest  1.5m/s
23:00 Cloudy -21°F 84.2% 0mm 12km Northwest  1.9m/s
02:00 Cloudy -27°F 84.4% 0mm 12km Northwest  1.6m/s
05:00 Cloudy -29°F 82.6% 0mm 12km Northwest  0.6m/s
08:00 Cloudy -29°F 81.9% 0mm 8km Northwest  1.4m/s
11:00 Cloudy -18°F 66.9% 0mm 8km Northwest  2.8m/s
14:00 Cloudy -10°F 75.5% 0mm 12km Northwest  2.6m/s
17:00 Cloudy -15°F 84% 0mm 12km Northwest  2.0m/s
20:00 Cloudy -17°F 87.7% 0mm 12km Northeast  1.5m/s
23:00 Sunny -21°F 91.7% 0mm 12km Northwest  2.0m/s
02:00 Sunny -25°F 93.7% 0mm 12km Northwest  2.1m/s
05:00 Sunny -31°F 91.7% 0mm 12km Northwest  0.3m/s
08:00 Sunny -29°F 90.6% 0mm 8km Northwest  0.7m/s
11:00 Sunny -18°F 60.7% 0mm 8km Northwest  2.8m/s
14:00 Sunny -12°F 71.7% 0mm 12km Northwest  4.1m/s
17:00 Sunny -14°F 77.5% 0mm 12km Northwest  1.4m/s
20:00 Sunny -25°F 81.1% 0mm 12km Southwest  2.2m/s
23:00 Sunny -26°F 85.9% 0mm 12km Southwest  2.1m/s
02:00 Sunny -27°F 80.4% 0mm 12km Southwest  1.6m/s
05:00 Sunny -23°F 81% 0mm 12km Southwest  1.6m/s
08:00 Sunny -17°F 64.5% 0mm 4km Southwest  1.4m/s
11:00 Sunny -8°F 64.1% 0mm 8km Southwest  2.7m/s
14:00 Sunny -4°F 72.8% 0mm 12km Northwest  2.8m/s
17:00 Sunny -8°F 78.1% 0mm 8km Southwest  2.1m/s
20:00 Sunny -12°F 83.5% 0mm 12km Northwest  1.2m/s
23:00 Sunny -23°F 87.1% 0mm 12km Southwest  1.8m/s
02:00 Sunny -23°F 82.3% 0mm 12km Southwest  1.8m/s
05:00 Sunny -23°F 81.9% 0mm 8km Southwest  0.8m/s
08:00 Sunny -20°F 81.4% 0mm 8km Southwest  1.7m/s
11:00 Sunny -6°F 62.8% 0mm 4km Southwest  1.9m/s
14:00 Sunny -3°F 69.8% 0mm 8km Southwest  3.3m/s
17:00 Sunny -4°F 74.1% 0mm 8km Southwest  2.3m/s
20:00 Sunny -12°F 78.7% 0mm 8km Southwest  0.3m/s
23:00 Sunny -13°F 82.4% 0mm 12km Southwest  4.3m/s
02:00 Sunny -15°F 82.7% 0mm 12km Southwest  1.7m/s
05:00 Sunny -18°F 82.8% 0mm 12km Southwest  1.1m/s